Showing default

SNAP-3 JIMI, 40975

Orbit data source: Space-Track

SNAP-3 JIMI, 40975 is a payload satellite owned by SMDC (US) in LEO that was launched on Thu, 08 Oct 2015 UTC via an ATLAS V 401 launch vehicle from the Air Force Western Test Range (AFWTR). Payload-class satellites include a variety of spacecraft equipped with specific instruments for various scientific and technological missions. These include communications satellites like Starlink; space stations such as the ISS; scientific satellites like the Hubble; Earth observation satellites from companies like Planet Labs, Umbra, and HawkEye 360; GPS; miniature CubeSats for education and research; and military/defense satellites.

Loading next visibility...
Identifier
40975, 2015-058M
Orbit
LEO
Country
Flag of USUS
Related business
Manufacturer
Duocomm Miltec
Mission
Operational Defense Communications
Bus & Motor
CUBESAT 3U, Unknown motor
Mass
5.3 kg wet, 5.3 kg dry
Launch date (UTC)
2015-10-08 (10 years ago)
Launch vehicle
ATLAS V 401
Launch site
Air Force Western Test Range (AFWTR)
Object type
Payload
Rocket body
Debris
Shape & HBR
Box + 8 Pan, 0.3 m
Radar Cross Section
0.085 m², Small (<0.1 m²)

Expand to show TLE details & history
Last TLE update: 19 hours ago

TLE from 19 hours ago
0 SNAP-3 JIMI
1 40975U 15058M   25300.22558774  .00006188  00000-0  45280-3 0  9999
2 40975  64.7660 235.0836 0119978 150.0318 210.7739 14.98833596 79265
Epoch: 2025-10-27T05:24Z
TLE epoch observation values (Epoch: 2025-10-27T05:24:50.780Z)
Latitude
-0.00001°
Longitude
118.04153°
Altitude
644.408 km
Speed
7.497 km/s
True Right ascension
15h 40m 20s
True Declination
0° 00' 00"
Sunlit
Object was in daylight at epoch
Visualization orbit readout
Latitude
Unknown
Longitude
Unknown
Altitude
Unknown
Speed
Unknown
Apparent Right ascension
Unknown
Apparent Declination
Unknown
Sunlit
N/A
Visualization observer readout
Local Sidereal Time
19:30:01
Azimuth
Unknown
Elevation
Unknown
Doppler factor
Unknown
Orbital elements
Apogee altitude
652.413 km
Perigee altitude
485.711 km
Semi-major axis
6,947.199 km
Eccentricity
0.012
Inclination
64.766°
RAAN
235.0836°
Arg. of periapsis
150.0318°
True anomaly
210.07943°
Mean anomaly
210.7739°
Eccentric anomaly
210.42577°
Mean motion
3.74825 °/min
Orbital period
96.04 mins
BSTAR
0.0004528
Loading maneuver chart data...
Computing Atmospheric mass density...
Loading historical data...
Loading historical data...
Loading historical data...
Loading historical data...
Loading historical data...
Loading historical data...
Loading historical data...

Documentation

Showing up to 5 results
|